When you browse on this site, cookies collect data to enhance your experience and personalize the content and advertising you see.
Visit our Privacy Policy to learn more. By continuing to use the site, you agree to this use of cookies and data.
  • In Österreich
  • Länderverzeichnis
  • Für 7 Tage
  • Wassertemperatur
  • Wetterkarte
  • News
  • Widgets
  • user-avatar
    Anmelden

    Stündliche Wetter Liverpool

    Heute, 12 Dezember, Donnerstag

    Zeit Temperatur Niederschläge Wind Luftdruck Luftfeuchtigkeit
    00:00 -5°C° 0 mm 2 m/S 764 mmHg 94%
    01:00 -5°C° 0 mm 2 m/S 764 mmHg 94%
    02:00 -3°C° 0 mm 1 m/S 765 mmHg 95%
    03:00 -5°C° 0 mm 2 m/S 765 mmHg 95%
    04:00 -6°C° 0 mm 3 m/S 765 mmHg 94%
    05:00 -7°C° 0 mm 4 m/S 766 mmHg 94%
    06:00 -7°C° 0 mm 5 m/S 767 mmHg 85%
    07:00 -8°C° 0 mm 6 m/S 768 mmHg 77%
    08:00 -7°C° 0 mm 7 m/S 769 mmHg 74%
    09:00 -7°C° 0 mm 7 m/S 770 mmHg 68%
    10:00 -7°C° 0 mm 8 m/S 771 mmHg 62%
    11:00 -7°C° 0 mm 8 m/S 771 mmHg 56%
    12:00 -7°C° 0 mm 8 m/S 772 mmHg 54%
    13:00 -7°C° 0 mm 7 m/S 772 mmHg 52%
    14:00 -7°C° 0 mm 7 m/S 772 mmHg 50%
    15:00 -8°C° 0 mm 6 m/S 773 mmHg 54%
    16:00 -7°C° 0 mm 5 m/S 774 mmHg 58%
    17:00 -8°C° 0 mm 4 m/S 774 mmHg 63%
    18:00 -8°C° 0 mm 4 m/S 775 mmHg 64%
    19:00 -8°C° 0 mm 3 m/S 776 mmHg 65%
    20:00 -8°C° 0 mm 3 m/S 776 mmHg 66%
    21:00 -8°C° 0 mm 3 m/S 777 mmHg 66%
    22:00 -8°C° 0 mm 3 m/S 777 mmHg 66%
    23:00 -6°C° 0 mm 2 m/S 777 mmHg 66%

    Morgen, 13 Dezember, Freitag

    Zeit Temperatur Niederschläge Wind Luftdruck Luftfeuchtigkeit
    00:00 -6°C° 0 mm 2 m/S 777 mmHg 66%
    01:00 -6°C° 0 mm 2 m/S 777 mmHg 65%
    02:00 -6°C° 0 mm 2 m/S 776 mmHg 65%
    03:00 -4°C° 0 mm 1 m/S 776 mmHg 64%
    04:00 -4°C° 0 mm 1 m/S 776 mmHg 63%
    05:00 -5°C° 0 mm 0 m/S 776 mmHg 62%
    06:00 -3°C° 0 mm 1 m/S 777 mmHg 62%
    07:00 -3°C° 0 mm 1 m/S 777 mmHg 61%
    08:00 -3°C° 0 mm 1 m/S 777 mmHg 60%
    09:00 -4°C° 0 mm 2 m/S 777 mmHg 58%
    10:00 -2°C° 0 mm 3 m/S 776 mmHg 55%
    11:00 -1°C° 0 mm 3 m/S 776 mmHg 52%
    12:00 -1°C° 0 mm 4 m/S 775 mmHg 57%
    13:00 -1°C° 0 mm 5 m/S 775 mmHg 62%
    14:00 0°C° 0 mm 5 m/S 774 mmHg 67%
    15:00 0°C° 0 mm 5 m/S 774 mmHg 70%
    16:00 -1°C° 0 mm 4 m/S 774 mmHg 73%
    17:00 -1°C° 0 mm 4 m/S 773 mmHg 76%
    18:00 -1°C° 0 mm 4 m/S 773 mmHg 78%
    19:00 0°C° 0 mm 4 m/S 773 mmHg 80%
    20:00 0°C° 0 mm 5 m/S 772 mmHg 81%
    21:00 +1°C° 0 mm 5 m/S 772 mmHg 83%
    22:00 +1°C° 0 mm 5 m/S 771 mmHg 85%
    23:00 +2°C° 0 mm 5 m/S 770 mmHg 87%

    übermorgen, 14 Dezember, Samstag

    Zeit Temperatur Niederschläge Wind Luftdruck Luftfeuchtigkeit
    00:00 +3°C° 0 mm 4 m/S 770 mmHg 90%
    01:00 +3°C° 0 mm 4 m/S 769 mmHg 92%
    02:00 +3°C° 0 mm 4 m/S 768 mmHg 94%
    03:00 +4°C° 0 mm 4 m/S 768 mmHg 95%
    04:00 +4°C° 0 mm 4 m/S 767 mmHg 95%
    05:00 +4°C° 0 mm 4 m/S 766 mmHg 96%
    06:00 +5°C° 0.2 mm 5 m/S 765 mmHg 96%
    07:00 +5°C° 0.2 mm 5 m/S 764 mmHg 96%
    08:00 +5°C° 0.2 mm 6 m/S 764 mmHg 96%
    09:00 +6°C° 2.8 mm 7 m/S 762 mmHg 96%
    10:00 +6°C° 2.8 mm 8 m/S 760 mmHg 97%
    11:00 +7°C° 2.8 mm 9 m/S 758 mmHg 97%
    12:00 +7°C° 7 mm 10 m/S 756 mmHg 97%
    13:00 +8°C° 7 mm 11 m/S 754 mmHg 97%
    14:00 +9°C° 7 mm 12 m/S 752 mmHg 97%
    15:00 +11°C° 4.4 mm 11 m/S 750 mmHg 97%
    16:00 +11°C° 4.4 mm 11 m/S 749 mmHg 97%
    17:00 +12°C° 4.4 mm 11 m/S 747 mmHg 97%
    18:00 +12°C° 2.9 mm 11 m/S 746 mmHg 97%
    19:00 +12°C° 2.9 mm 11 m/S 745 mmHg 97%
    20:00 +12°C° 2.9 mm 11 m/S 744 mmHg 97%
    21:00 +12°C° 0 mm 9 m/S 744 mmHg 97%
    22:00 +12°C° 0 mm 8 m/S 743 mmHg 97%
    23:00 +12°C° 0 mm 7 m/S 742 mmHg 97%

    15 Dezember, Sonntag

    Zeit Temperatur Niederschläge Wind Luftdruck Luftfeuchtigkeit
    00:00 +12°C° 0.8 mm 8 m/S 741 mmHg 97%
    01:00 +12°C° 0.8 mm 9 m/S 740 mmHg 96%
    02:00 +12°C° 0.8 mm 10 m/S 739 mmHg 96%
    03:00 +11°C° 0 mm 10 m/S 739 mmHg 94%
    04:00 +11°C° 0 mm 10 m/S 739 mmHg 91%
    05:00 +10°C° 0 mm 9 m/S 739 mmHg 88%
    06:00 +8°C° 0 mm 10 m/S 739 mmHg 87%
    07:00 +8°C° 0 mm 10 m/S 739 mmHg 85%
    08:00 +7°C° 0 mm 11 m/S 740 mmHg 83%
    09:00 +6°C° 0.1 mm 11 m/S 740 mmHg 82%
    10:00 +5°C° 0.1 mm 12 m/S 740 mmHg 81%
    11:00 +4°C° 0.1 mm 12 m/S 740 mmHg 80%
    12:00 +4°C° 0.1 mm 12 m/S 740 mmHg 78%
    13:00 +4°C° 0.1 mm 12 m/S 740 mmHg 77%
    14:00 +4°C° 0.1 mm 12 m/S 740 mmHg 75%
    15:00 +3°C° 0 mm 12 m/S 741 mmHg 74%
    16:00 +3°C° 0 mm 12 m/S 742 mmHg 73%
    17:00 +3°C° 0 mm 11 m/S 742 mmHg 71%
    18:00 +3°C° 0 mm 11 m/S 743 mmHg 71%
    19:00 +3°C° 0 mm 11 m/S 744 mmHg 70%
    20:00 +2°C° 0 mm 10 m/S 745 mmHg 70%
    21:00 +2°C° 0 mm 11 m/S 745 mmHg 69%
    22:00 +1°C° 0 mm 11 m/S 746 mmHg 69%
    23:00 +1°C° 0 mm 11 m/S 746 mmHg 69%

    16 Dezember, Montag

    Zeit Temperatur Niederschläge Wind Luftdruck Luftfeuchtigkeit
    00:00 0°C° 0 mm 10 m/S 747 mmHg 68%
    01:00 0°C° 0 mm 10 m/S 747 mmHg 68%
    02:00 -2°C° 0 mm 10 m/S 748 mmHg 68%
    03:00 -3°C° 0 mm 10 m/S 748 mmHg 68%
    04:00 -4°C° 0 mm 11 m/S 749 mmHg 67%
    05:00 -4°C° 0 mm 11 m/S 750 mmHg 67%
    06:00 -6°C° 0 mm 11 m/S 750 mmHg 65%
    07:00 -7°C° 0 mm 11 m/S 751 mmHg 64%
    08:00 -8°C° 0 mm 11 m/S 752 mmHg 62%
    09:00 -7°C° 0 mm 12 m/S 753 mmHg 59%
    10:00 -7°C° 0 mm 12 m/S 754 mmHg 55%
    11:00 -6°C° 0 mm 12 m/S 755 mmHg 51%
    12:00 -6°C° 0 mm 12 m/S 755 mmHg 50%
    13:00 -6°C° 0 mm 11 m/S 755 mmHg 49%
    14:00 -6°C° 0 mm 11 m/S 756 mmHg 48%
    15:00 -7°C° 0 mm 11 m/S 756 mmHg 47%
    16:00 -7°C° 0 mm 11 m/S 757 mmHg 46%
    17:00 -8°C° 0 mm 10 m/S 758 mmHg 45%
    18:00 -8°C° 0 mm 10 m/S 758 mmHg 45%
    19:00 -8°C° 0 mm 10 m/S 759 mmHg 45%
    20:00 -8°C° 0 mm 9 m/S 760 mmHg 45%
    21:00 -8°C° 0 mm 9 m/S 760 mmHg 45%
    22:00 -7°C° 0 mm 8 m/S 760 mmHg 45%
    23:00 -7°C° 0 mm 8 m/S 761 mmHg 46%

    17 Dezember, Dienstag

    Zeit Temperatur Niederschläge Wind Luftdruck Luftfeuchtigkeit
    00:00 -7°C° 0 mm 7 m/S 761 mmHg 46%
    01:00 -7°C° 0 mm 7 m/S 761 mmHg 47%
    02:00 -6°C° 0 mm 6 m/S 761 mmHg 47%
    03:00 -6°C° 0 mm 5 m/S 761 mmHg 48%
    04:00 -6°C° 0 mm 5 m/S 761 mmHg 49%
    05:00 -5°C° 0 mm 4 m/S 760 mmHg 50%
    06:00 -5°C° 0.1 mm 3 m/S 760 mmHg 50%
    07:00 -4°C° 0.1 mm 2 m/S 760 mmHg 50%
    08:00 -1°C° 0.1 mm 1 m/S 759 mmHg 49%
    09:00 -1°C° 0.1 mm 1 m/S 759 mmHg 50%
    10:00 0°C° 0.1 mm 1 m/S 758 mmHg 51%
    11:00 +1°C° 0.1 mm 1 m/S 757 mmHg 52%
    12:00 -1°C° 0.5 mm 2 m/S 755 mmHg 65%
    13:00 -2°C° 0.5 mm 3 m/S 754 mmHg 78%
    14:00 -3°C° 0.5 mm 4 m/S 752 mmHg 92%
    15:00 -2°C° 0.5 mm 5 m/S 750 mmHg 93%
    16:00 -2°C° 0.5 mm 6 m/S 749 mmHg 95%
    17:00 -1°C° 0.5 mm 7 m/S 748 mmHg 96%
    18:00 -1°C° 0.5 mm 6 m/S 747 mmHg 96%
    19:00 +1°C° 0.5 mm 6 m/S 746 mmHg 97%
    20:00 +2°C° 0.5 mm 6 m/S 745 mmHg 98%
    21:00 +3°C° 0.3 mm 5 m/S 744 mmHg 98%
    22:00 +4°C° 0.3 mm 4 m/S 744 mmHg 98%
    23:00 +5°C° 0.3 mm 3 m/S 743 mmHg 99%
    Mehr zeigen